User: anonymous   Login
Location: Ostrava
(49.8330°N, 18.2830°E)
Time: 01:04:37
(UTC+02:00)
Language:

Cosmos 1766 - Orbit

View from above orbital plane
View from above orbital plane
View from above satellite
View from above satellite

Ground track
Ground track

The orbit data is extracted from the following two-line orbital elements,

1 16881U 86055A   14294.97195689  .00006426  00000-0  43555-3 0  9973
2 16881 082.5115 249.8621 0013761 141.3540 218.8675 15.06226260535286
Epoch (UTC): 21 October 2014 23:19:37
Eccentricity: 0.0013761
inclination: 82.5115°
perigee height: 538 km
apogee height: 557 km
right ascension of ascending node: 249.8621°
argument of perigee: 141.3540°
revolutions per day: 15.06226260
mean anomaly at epoch: 218.8675°
orbit number at epoch: 53528

The dashed part of the orbit path shows where the satellite is in the earth's shadow,  

DLR